Volver al catálogo

QIANFAN-113

ActivoComunicacionesPO
NORAD 68640·PAYLOAD·🇨🇳 China

Lanzado Apr 7, 2026 desde Wenchang Space Launch Site

Loading…

Próximos Pases (próximas 24 horas)

TLE

ActualizadoSource: Space-Track

Época: Sep 14, 2026, 14:44 UTC

1 68640U 26075E   26257.61430768  .00000025  00000-0  20241-4 0  9991
2 68640  88.9877 311.8762 0002345  96.2373 263.9045 13.51029233 21882

Sigue QIANFAN-113 en tiempo real con AllMySat

Download on the App Store